Location: Albany
(35.0000°S, 118.0000°E)
Time: 19:45:17
(UTC-04:00)

Transit 2A - Visible Passes

Search period start: 31 October 2014 00:00
Search period end: 09 November 2014 23:00
Orbit: 598 x 965 km, 66.7° (Epoch: 30 October)

Date Brightness Start Highest point End Pass type
(mag) Time Alt. Az. Time Alt. Az. Time Alt. Az.
31 Oct 7.9 10:05:56 10° SSW 10:08:05 22° S 10:08:05 22° S visible
01 Nov 7.7 09:32:43 10° S 09:35:23 22° SSE 09:35:23 22° SSE visible
01 Nov 8.8 11:15:53 10° SW 11:15:55 10° SW 11:15:55 10° SW visible
02 Nov 7.7 07:59:43 10° S 08:02:44 18° SE 08:02:44 18° SE visible
02 Nov 8.3 09:41:58 10° SW 09:43:15 17° SW 09:43:15 17° SW visible
03 Nov 8.0 07:27:10 10° SSE 07:29:13 12° SE 07:30:06 12° ESE visible
03 Nov 7.6 09:08:15 10° SSW 09:10:37 28° SW 09:10:37 28° SW visible
04 Nov 6.8 08:34:42 10° SSW 08:38:01 41° S 08:38:01 41° S visible
05 Nov 6.5 08:01:16 10° SSW 08:05:27 42° SE 08:05:27 42° SE visible
05 Nov 8.6 09:45:57 10° WSW 09:45:59 10° WSW 09:45:59 10° WSW visible
06 Nov 6.8 07:27:59 10° S 07:32:17 29° SE 07:32:55 28° ESE visible
06 Nov 8.0 09:11:29 10° SW 09:13:27 19° WSW 09:13:27 19° WSW visible
07 Nov 7.4 06:54:54 10° S 06:58:31 20° SE 07:00:26 16° E visible
07 Nov 7.0 08:37:28 10° SW 08:40:58 34° W 08:40:58 34° W visible
08 Nov 7.8 06:22:09 10° SSE 06:24:41 14° SE 06:27:06 10° ESE visible
08 Nov 5.8 08:03:41 10° SSW 08:08:27 62° WNW 08:08:31 62° WNW visible
09 Nov 5.6 07:30:04 10° SSW 07:34:56 82° ESE 07:36:06 50° NE visible
